Wind_Speed
7 7 11 14 16 18 20 21 22 19 18 16 15 15 12 10 7 4 2 1 3 4 6 6 6 5 5 5 6 5 5 4 4 4 4 4 5 6 6 8 9 9 9 10
8 8 11 13 15 17 17 19 20 20 19 17 15 14 13 10 6 4 3 0 2 4 3 3 3 3 4 4 4 4 4 4 3 3 3 4 4 5 6 7 8 9 9 9
10 9 10 13 14 15 16 17 18 19 19 17 14 13 11 9 7 5 3 1 2 3 4 2 2 2 3 4 4 4 4 3 3 2 2 3 4 5 6 7 8 8 9 10
9 9 11 11 12 13 15 15 15 16 17 15 11 9 10 9 10 8 5 4 3 3 4 3 3 3 3 3 3 4 3 2 2 2 2 3 4 5 5 6 8 9 10 11
8 10 14 14 13 13 13 12 12 13 15 13 9 8 9 10 10 10 8 7 5 4 3 3 3 4 3 3 3 3 3 2 1 1 2 3 4 5 6 7 9 10 11 12
9 12 15 14 13 13 12 11 10 10 11 10 7 8 9 9 10 10 10 10 8 6 4 4 4 4 4 3 3 3 3 2 1 1 2 3 5 6 7 8 9 10 12 13
10 12 13 14 13 12 12 12 11 10 10 10 6 6 8 8 9 10 9 9 9 7 5 4 4 4 3 3 3 3 3 2 2 2 4 5 6 8 9 10 11 12 13 14
12 12 13 14 13 13 12 12 11 11 10 9 7 5 6 7 8 9 8 7 7 6 4 3 3 2 2 3 3 3 3 2 3 4 5 6 8 9 10 12 13 13 14 14
15 14 14 15 14 13 13 11 12 13 11 8 4 4 4 5 7 7 6 5 5 3 2 2 1 2 3 3 4 4 4 4 5 6 7 8 9 10 11 13 14 15 15 16
16 16 15 15 16 14 14 14 13 13 12 10 7 6 4 4 6 6 5 3 2 2 1 1 1 2 3 3 4 4 5 5 6 7 9 10 11 12 13 14 15 16 17 18
16 17 17 16 16 16 17 17 15 14 13 13 11 8 7 7 6 6 4 3 2 1 1 1 2 3 4 5 5 6 6 7 8 9 11 12 13 14 15 16 17 18 19 20
16 17 18 18 17 18 19 19 16 15 14 15 14 13 10 10 9 8 7 6 5 4 3 3 3 4 5 6 7 8 9 10 11 12 14 15 16 17 18 18 19 20 21 22
16 17 18 17 17 17 18 17 17 16 15 15 15 14 12 13 11 11 11 10 8 7 6 6 6 6 7 8 9 10 12 13 14 16 17 17 19 19 20 21 21 22 23 24
16 17 18 18 15 14 15 16 17 17 16 17 16 14 13 14 15 14 14 13 12 11 9 8 8 9 10 10 11 12 14 15 17 18 19 20 21 22 22 23 24 25 26 26
19 19 19 17 15 14 14 13 13 15 17 18 16 15 15 16 17 15 14 14 14 13 12 11 11 12 12 13 14 15 16 17 19 20 21 22 23 24 25 25 26 27 27 29
22 20 18 16 15 16 16 15 15 16 18 19 18 16 15 16 17 15 15 15 16 15 14 13 14 14 15 16 17 17 18 19 21 22 24 25 26 27 27 28 29 29 30 31
22 22 20 17 16 17 15 14 16 18 18 18 18 17 17 18 16 15 15 16 16 16 15 14 14 15 16 18 20 21 21 22 23 25 26 28 29 29 30 30 31 32 33 34
22 22 21 19 18 18 16 15 17 18 18 20 20 20 20 19 17 16 16 17 18 17 16 16 17 19 20 21 22 23 24 25 26 28 29 30 31 31 32 32 33 34 35 36
23 23 22 21 20 20 19 18 18 19 20 20 19 20 20 21 20 19 17 17 18 19 19 20 22 23 23 24 24 25 27 28 29 31 32 32 33 33 34 35 35 36 37 39
24 24 24 23 23 22 20 19 20 21 21 21 21 21 21 22 22 22 21 19 20 22 24 25 25 26 26 27 27 28 29 31 32 33 34 34 35 36 37 37 38 39 40 41
25 25 25 24 24 22 20 19 19 21 22 22 22 21 22 22 22 23 24 24 24 26 27 27 28 29 30 31 31 32 32 33 34 35 35 36 38 38 39 40 42 43 43 44
26 26 25 25 23 22 21 21 20 22 21 22 21 21 20 21 23 24 24 25 26 28 29 30 31 32 33 34 35 35 36 36 37 37 38 39 40 41 42 43 44 45 46 47
25 25 25 25 24 22 22 23 23 24 24 23 21 19 19 21 22 23 25 27 29 30 31 32 33 34 35 36 37 37 38 38 39 40 41 42 43 44 45 46 47 48 49 49
25 27 28 28 27 26 25 25 27 27 25 23 22 22 22 23 23 24 26 28 30 31 33 34 35 36 37 37 38 39 40 41 42 43 44 46 47 48 49 50 50 51 51 52
27 28 29 29 28 27 27 26 26 26 25 24 24 25 26 27 27 27 28 30 31 32 34 35 36 37 38 39 40 41 43 44 45 46 47 48 50 51 52 52 53 53 54 54
27 29 29 30 30 29 28 28 28 28 27 27 27 28 29 29 30 31 31 32 33 34 35 36 38 39 40 41 42 43 44 46 47 48 50 51 52 53 54 55 55 55 56 56
Wind_Direction
307 330 358 2 0 355 353 346 342 347 349 347 345 349 350 349 347 337 337 173 188 187 183 192 208 224 233 240 252 263 258 265 280 291 305 316 315 314 317 318 319 320 321 321
303 320 342 353 352 346 341 337 340 346 349 350 347 349 354 2 6 6 9 153 180 165 170 184 208 211 220 229 235 246 252 262 273 283 302 314 318 319 322 323 324 326 325 323
313 328 341 345 340 335 333 335 345 352 354 351 353 355 359 22 31 32 43 77 139 147 160 166 180 206 201 212 225 233 241 243 260 276 299 320 327 327 327 325 325 326 327 328
329 333 334 331 330 328 333 342 354 356 355 353 358 16 38 46 45 52 57 53 86 126 141 155 165 170 176 193 211 212 207 231 241 271 308 328 332 331 329 330 331 330 329 329
329 326 330 329 326 326 332 341 348 355 0 5 25 56 59 56 55 58 59 59 76 103 128 148 157 160 167 175 186 196 206 216 232 280 314 336 342 340 337 337 337 334 331 330
314 318 328 332 328 328 328 330 334 340 348 4 42 63 63 61 63 62 63 66 75 89 106 129 138 151 163 175 192 201 197 201 231 286 318 336 342 342 341 340 339 337 335 333
300 313 323 329 329 325 325 324 321 328 344 356 25 60 58 59 62 61 61 68 73 78 94 117 136 146 162 182 195 197 202 217 259 299 317 328 335 337 337 337 337 336 335 333
296 305 312 317 322 323 319 315 313 320 335 350 11 46 53 57 56 57 57 60 67 73 84 109 130 152 181 203 214 222 232 257 283 300 313 324 330 332 333 333 333 332 331 330
283 295 302 305 306 310 315 310 300 301 307 326 354 21 32 39 37 41 49 57 62 76 91 113 160 184 199 215 229 241 256 270 285 298 311 320 324 326 328 329 329 329 327 326
278 288 296 292 290 292 294 296 287 280 286 295 301 313 340 360 6 14 18 28 43 66 109 219 230 230 239 247 252 260 269 278 290 302 311 315 317 320 321 323 324 323 323 322
275 284 294 291 280 282 284 285 281 273 274 282 287 292 303 316 328 339 344 351 358 354 267 253 251 257 260 266 271 276 283 289 296 301 306 310 312 313 315 316 318 318 318 317
276 287 293 294 287 280 279 283 280 270 262 268 275 283 295 305 310 315 322 320 323 327 312 290 273 271 275 282 286 290 294 298 300 301 303 306 307 308 309 311 312 313 313 311
280 289 294 295 289 281 278 278 277 270 258 258 266 278 291 300 305 308 310 313 317 323 314 303 295 289 289 293 295 297 299 300 300 300 301 302 303 304 306 307 308 308 309 308
284 293 297 299 293 282 278 275 269 265 258 255 259 267 279 291 297 300 303 309 312 315 315 309 302 298 295 295 296 298 298 299 298 297 297 298 299 300 302 303 304 305 306 307
292 298 296 297 294 282 279 277 269 263 259 254 252 260 271 281 290 297 300 304 309 313 313 310 306 301 297 295 295 295 295 295 294 294 294 294 295 297 299 300 301 302 303 304
289 292 293 292 290 282 280 276 264 263 263 252 251 260 271 279 283 287 294 301 304 307 307 305 302 297 295 294 293 293 293 292 292 292 291 292 293 295 296 297 298 300 301 302
285 288 289 285 284 284 283 280 271 263 264 265 262 266 273 273 273 277 286 293 296 297 297 296 295 294 292 293 294 293 293 293 292 292 292 292 293 294 295 296 298 299 301 303
282 286 287 285 282 282 277 269 271 271 273 274 271 270 274 275 267 273 280 285 290 291 290 291 294 294 293 294 294 294 294 294 293 293 293 292 292 293 294 295 297 299 300 302
278 280 282 285 284 281 276 271 268 272 274 277 273 271 273 277 272 273 276 279 285 288 290 291 292 292 290 291 292 293 294 294 293 292 293 293 292 294 294 294 296 298 299 301
273 277 279 282 283 282 280 276 273 274 279 280 276 271 276 283 277 271 275 281 287 289 291 293 292 291 290 291 291 291 291 292 291 291 292 293 293 294 294 295 295 297 298 300
277 278 278 280 280 281 282 280 278 282 283 282 282 279 281 285 279 277 280 285 290 290 291 292 292 292 292 292 292 291 291 290 290 290 290 291 292 292 293 294 295 295 297 298
279 278 278 277 277 279 284 281 284 292 288 287 287 283 285 287 285 284 284 288 290 291 292 292 292 291 291 291 290 290 290 290 290 290 290 291 291 291 292 293 295 295 296 297
276 277 281 283 281 286 286 286 288 294 292 291 292 290 295 296 294 291 290 291 291 290 290 290 290 289 289 289 289 289 289 289 290 290 290 291 291 292 292 293 293 294 295 296
274 276 280 283 285 287 292 293 291 294 295 295 297 297 299 297 297 295 294 292 290 289 289 289 288 288 288 289 289 289 289 289 289 289 289 290 291 291 291 292 292 293 294 295
272 275 278 282 285 287 291 292 291 293 296 297 296 297 298 297 296 296 295 293 291 290 289 289 288 288 288 288 288 288 288 288 289 289 289 289 289 290 290 290 291 292 293 293
271 275 277 279 282 284 287 289 289 291 292 295 296 295 295 296 297 297 296 294 292 291 291 290 290 290 290 290 289 289 290 289 289 290 290 289 289 290 290 290 290 291 291 291
Height
5900 5899 5895 5893 5890 5888 5886 5885 5882 5880 5877 5874 5870 5867 5864 5862 5860 5859 5858 5858 5859 5860 5861 5863 5865 5868 5870 5872 5873 5874 5874 5875 5875 5875 5875 5874 5874 5873 5872 5870 5869 5868 5867 5865
5899 5896 5894 5891 5889 5887 5886 5884 5882 5880 5876 5873 5869 5867 5864 5861 5860 5858 5858 5858 5859 5858 5860 5861 5863 5865 5868 5870 5871 5873 5873 5874 5874 5874 5873 5873 5872 5871 5870 5869 5867 5866 5864 5863
5896 5895 5892 5890 5888 5887 5885 5884 5881 5879 5875 5872 5870 5867 5864 5861 5859 5859 5858 5859 5859 5859 5860 5862 5863 5865 5866 5868 5870 5871 5872 5872 5873 5873 5872 5871 5871 5870 5869 5867 5866 5864 5862 5860
5895 5893 5892 5890 5888 5886 5885 5883 5881 5878 5875 5871 5870 5868 5865 5862 5861 5859 5859 5859 5859 5860 5861 5862 5863 5864 5866 5867 5869 5870 5871 5871 5871 5871 5871 5870 5869 5868 5867 5865 5863 5862 5860 5858
5894 5892 5891 5889 5887 5885 5883 5882 5880 5878 5875 5873 5871 5869 5867 5864 5862 5862 5861 5860 5860 5860 5861 5862 5863 5865 5866 5867 5868 5869 5870 5870 5870 5870 5869 5868 5868 5866 5865 5863 5861 5860 5857 5855
5892 5891 5889 5887 5885 5884 5882 5880 5879 5878 5876 5874 5872 5871 5869 5867 5865 5864 5863 5862 5861 5861 5862 5863 5864 5865 5866 5867 5867 5868 5868 5869 5868 5868 5867 5867 5866 5864 5863 5861 5859 5857 5855 5853
5890 5889 5887 5885 5884 5882 5880 5879 5878 5876 5875 5874 5872 5871 5871 5868 5867 5865 5864 5863 5862 5862 5863 5864 5865 5865 5866 5866 5867 5868 5868 5867 5867 5866 5866 5865 5863 5862 5860 5858 5856 5854 5852 5850
5887 5887 5885 5883 5882 5880 5878 5877 5876 5875 5873 5873 5871 5871 5871 5868 5867 5865 5864 5864 5863 5864 5864 5865 5865 5865 5865 5866 5866 5866 5866 5866 5865 5864 5863 5862 5861 5859 5858 5855 5853 5851 5849 5847
5883 5883 5882 5881 5879 5878 5877 5875 5875 5873 5872 5871 5870 5870 5869 5867 5866 5865 5865 5864 5864 5864 5864 5864 5865 5865 5865 5865 5865 5865 5864 5864 5863 5862 5861 5860 5858 5856 5854 5852 5850 5848 5846 5843
5879 5880 5879 5878 5876 5875 5875 5874 5872 5871 5869 5868 5868 5868 5868 5866 5865 5865 5864 5864 5864 5864 5863 5863 5863 5863 5863 5863 5863 5862 5862 5861 5860 5859 5858 5856 5855 5853 5851 5849 5847 5844 5842 5839
5875 5876 5875 5874 5873 5871 5871 5870 5869 5868 5867 5866 5865 5867 5865 5864 5863 5863 5863 5863 5863 5862 5862 5861 5861 5861 5861 5861 5860 5860 5859 5858 5857 5856 5854 5853 5851 5849 5847 5845 5842 5840 5837 5835
5872 5872 5870 5870 5869 5867 5866 5865 5864 5864 5864 5863 5862 5865 5862 5862 5861 5860 5860 5860 5860 5859 5859 5859 5859 5858 5858 5857 5857 5856 5855 5854 5853 5852 5850 5849 5847 5845 5842 5840 5837 5835 5832 5829
5868 5868 5867 5866 5866 5864 5862 5860 5859 5859 5860 5859 5859 5861 5859 5858 5857 5857 5857 5857 5856 5856 5855 5855 5855 5855 5854 5854 5853 5852 5851 5850 5849 5847 5846 5844 5842 5840 5837 5835 5832 5829 5826 5823
5863 5863 5863 5862 5860 5858 5857 5856 5855 5855 5854 5855 5855 5855 5854 5854 5853 5853 5853 5852 5852 5852 5851 5851 5850 5850 5850 5849 5849 5848 5846 5845 5844 5842 5840 5839 5836 5834 5831 5828 5826 5823 5820 5817
5859 5859 5857 5856 5855 5853 5853 5852 5851 5850 5850 5850 5850 5849 5849 5849 5849 5848 5848 5847 5847 5847 5846 5846 5846 5845 5845 5844 5843 5843 5841 5840 5839 5837 5835 5833 5830 5828 5825 5822 5819 5816 5813 5809
5854 5854 5853 5852 5850 5849 5848 5848 5847 5846 5845 5845 5844 5844 5844 5844 5844 5844 5843 5843 5843 5842 5842 5842 5841 5840 5840 5839 5838 5837 5836 5835 5833 5831 5828 5826 5823 5821 5818 5814 5811 5808 5804 5801
5849 5848 5848 5847 5846 5844 5844 5844 5842 5841 5840 5840 5840 5840 5839 5839 5838 5839 5839 5839 5839 5838 5838 5837 5837 5836 5835 5833 5832 5831 5829 5828 5826 5824 5821 5819 5816 5813 5810 5806 5803 5800 5796 5792
5844 5843 5843 5842 5842 5841 5842 5839 5837 5835 5835 5835 5834 5834 5834 5834 5833 5834 5834 5835 5834 5834 5833 5832 5831 5830 5829 5827 5826 5824 5822 5820 5818 5815 5813 5810 5808 5804 5801 5798 5794 5791 5787 5783
5838 5838 5837 5837 5836 5835 5835 5834 5833 5831 5831 5830 5829 5829 5829 5829 5829 5829 5829 5829 5829 5828 5827 5826 5825 5824 5822 5820 5818 5817 5815 5812 5809 5807 5804 5801 5798 5795 5792 5788 5785 5781 5777 5773
5832 5832 5832 5831 5829 5829 5831 5829 5828 5828 5827 5826 5825 5825 5824 5824 5824 5824 5823 5822 5821 5821 5820 5819 5817 5816 5815 5813 5811 5809 5806 5804 5801 5798 5795 5792 5788 5785 5782 5778 5774 5770 5767 5763
5826 5826 5825 5823 5822 5823 5824 5823 5822 5823 5823 5821 5820 5819 5819 5817 5817 5818 5817 5815 5814 5814 5812 5810 5809 5807 5805 5803 5801 5799 5797 5794 5791 5788 5786 5782 5778 5775 5771 5767 5763 5759 5755 5751
5818 5818 5817 5816 5816 5818 5817 5816 5816 5816 5814 5814 5813 5812 5812 5811 5810 5809 5808 5807 5806 5805 5803 5801 5799 5797 5795 5793 5791 5789 5786 5783 5781 5778 5775 5771 5767 5763 5759 5755 5751 5746 5742 5738
5811 5811 5810 5810 5811 5811 5809 5809 5809 5808 5807 5807 5806 5805 5805 5804 5803 5802 5800 5799 5797 5796 5794 5792 5790 5787 5785 5783 5780 5778 5775 5771 5768 5765 5762 5758 5754 5750 5746 5742 5738 5733 5729 5724
5804 5803 5803 5803 5803 5803 5802 5801 5801 5800 5799 5799 5798 5798 5797 5796 5795 5794 5792 5791 5789 5787 5785 5782 5780 5777 5775 5772 5769 5766 5763 5759 5756 5752 5748 5744 5740 5736 5732 5727 5723 5719 5714 5709
5798 5796 5795 5795 5795 5794 5794 5794 5793 5792 5792 5791 5789 5789 5789 5788 5787 5786 5784 5782 5780 5777 5775 5772 5769 5767 5764 5760 5757 5753 5750 5747 5743 5739 5735 5731 5726 5722 5717 5713 5708 5704 5700 5694
5791 5790 5789 5789 5788 5788 5787 5786 5785 5785 5784 5783 5782 5782 5781 5780 5778 5777 5774 5772 5770 5767 5764 5761 5758 5755 5751 5748 5744 5741 5737 5733 5729 5724 5720 5715 5711 5706 5701 5697 5693 5688 5683 5678